{"data":{"norad_id":55285,"intl_designator":"2023-010S","name":"STARLINK-5332","alt_names":[],"object_type":"PAYLOAD","status":"ACTIVE","operator":null,"country":"US","launch_date":"2023-01-19","launch_site_code":"AFWTR","launch_vehicle":null,"mission":null,"orbit_class":"UNKNOWN","rcs_meters":null,"size_class":null,"mass_kg":null,"dimensions":null,"purposes":["comms"],"wikipedia_slug":null,"has_3d_model":false,"image_url":null,"decayed_at":null,"tle_current":{"epoch":"2026-05-25T03:04:17.905728Z","epoch_age_seconds":67174,"freshness":"FRESH","line1":"1 55285U 23010S   26145.12798502  .00000412  00000+0  42332-4 0  9997","line2":"2 55285  69.9984 171.6487 0003349 266.3242  93.7534 14.98327315186098","mean_motion":14.98327315,"eccentricity":0.0003349,"inclination_deg":69.9984,"raan_deg":171.6487,"arg_perigee_deg":266.3242,"mean_anomaly_deg":93.7534,"bstar":4.2332e-5,"rev_number":18609,"period_min":96.107171349272,"perigee_km":569.73657171793,"apogee_km":574.39181647773,"semimajor_km":6950.2011940978,"source":"CELESTRAK","updated_at":"2026-05-25T13:38:17.733681Z"}}}